Ozona, TX

11:37 AM CDT on June 27, 2017 (GMT -0500)
Ozona Municipal

Weather History for KOZA - May, 2013

Change the Weather History Date:

Monday, May 20, 2013

  Actual Average Record
Temperature  
Mean Temperature 84 °F -  
Max Temperature 98 °F 85 °F 98 °F (2013)
Min Temperature 71 °F 60 °F 53 °F (2016)
Cooling Degree Days 20    
Growing Degree Days 34 (Base 50)    
Moisture  
Dew Point 55 °F    
Average Humidity 46    
Maximum Humidity 83    
Minimum Humidity 8    
Precipitation  
Precipitation 0.00 in - - ()
Sea Level Pressure  
Sea Level Pressure 29.81 in    
Wind  
Wind Speed 10 mph (SSW)    
Max Wind Speed 16 mph    
Max Gust Speed 23 mph    
Visibility 10 miles    
Events      
Averages and records for this station are not official NWS values.
T = Trace of Precipitation, MM = Missing Value Source: NWS Daily Summary

Daily Weather History Graph

Daily Weather History Graph

Search for Another Location

Airport or City:

Trip Planner

Search our weather history database for the weather conditions in past years. The results will help you decide how hot, cold, wet, or windy it might be!

Date:

Astronomy

May. 20, 2013 Rise Set
Actual Time 6:46 AM CDT 8:36 PM CDT
Civil Twilight 6:20 AM CDT 9:02 PM CDT
Nautical Twilight 5:47 AM CDT 9:35 PM CDT
Astronomical Twilight 5:13 AM CDT 10:09 PM CDT
Moon 4:03 PM CDT (5/20) 3:22 AM CDT (5/20)
Length of Visible Light 14h 42m
Length of Day
13h 49m
Waxing Gibbous, 75% of the Moon is Illuminated
May 20
Waxing Gibbous
May 24
Full
May 31
Last Quarter
Jun 8
New
Jun 16
First Quarter

Hourly Weather History & Observations

Time (CDT) Temp. Heat Index Dew Point Humidity Pressure Visibility Wind Dir Wind Speed Gust Speed Precip Events Conditions
12:15 AM 78.8 °F - 53.6 °F 42% 29.80 in 10.0 mi South 8.1 mph - N/A   Clear
12:35 AM 78.8 °F - 53.6 °F 42% 29.80 in 10.0 mi South 6.9 mph - N/A   Clear
12:55 AM 78.8 °F - 55.4 °F 44% 29.80 in 10.0 mi South 9.2 mph - N/A   Clear
1:15 AM 78.8 °F - 59.0 °F 51% 29.80 in 10.0 mi South 9.2 mph - N/A   Clear
1:55 AM 78.8 °F - 62.6 °F 57% 29.80 in 10.0 mi South 10.4 mph - N/A   Clear
2:15 AM 78.8 °F - 64.4 °F 61% 29.80 in 10.0 mi South 12.7 mph 19.6 mph N/A   Clear
2:35 AM 78.8 °F - 64.4 °F 61% 29.79 in 10.0 mi South 15.0 mph 23.0 mph N/A   Clear
3:15 AM 78.8 °F - 66.2 °F 65% 29.79 in 10.0 mi South 16.1 mph 21.9 mph N/A   Clear
3:35 AM 78.8 °F - 66.2 °F 65% 29.79 in 10.0 mi South 13.8 mph 20.7 mph N/A   Clear
3:55 AM 77.0 °F - 66.2 °F 69% 29.79 in 10.0 mi South 11.5 mph 19.6 mph N/A   Clear
4:35 AM 77.0 °F - 66.2 °F 69% 29.80 in 10.0 mi South 13.8 mph 18.4 mph N/A   Clear
4:55 AM 75.2 °F - 68.0 °F 78% 29.81 in 10.0 mi South 13.8 mph 20.7 mph N/A   Clear
5:35 AM 73.4 °F - 66.2 °F 78% 29.82 in 10.0 mi South 10.4 mph 16.1 mph N/A   Clear
5:55 AM 73.4 °F - 66.2 °F 78% 29.82 in 10.0 mi South 12.7 mph - N/A   Clear
6:15 AM 71.6 °F - 66.2 °F 83% 29.82 in 10.0 mi South 11.5 mph - N/A   Clear
6:35 AM 71.6 °F - 64.4 °F 78% 29.83 in 10.0 mi South 10.4 mph - N/A   Clear
7:15 AM 71.6 °F - 64.4 °F 78% 29.85 in 10.0 mi South 11.5 mph - N/A   Clear
7:35 AM 71.6 °F - 64.4 °F 78% 29.85 in 10.0 mi SSW 6.9 mph - N/A   Clear
7:55 AM 71.6 °F - 64.4 °F 78% 29.86 in 10.0 mi South 10.4 mph 17.3 mph N/A   Clear
8:35 AM 73.4 °F - 64.4 °F 73% 29.86 in 10.0 mi South 10.4 mph - N/A   Clear
8:55 AM 73.4 °F - 64.4 °F 73% 29.87 in 10.0 mi South 11.5 mph - N/A   Clear
9:15 AM 73.4 °F - 64.4 °F 73% 29.88 in 10.0 mi SSW 9.2 mph - N/A   Clear
9:55 AM 75.2 °F - 64.4 °F 69% 29.89 in 10.0 mi SSW 12.7 mph - N/A   Clear
10:35 AM 77.0 °F - 64.4 °F 65% 29.89 in 7.0 mi SSW 12.7 mph - N/A   Clear
10:55 AM 78.8 °F - 64.4 °F 61% 29.88 in 10.0 mi SW 10.4 mph 16.1 mph N/A   Clear
11:15 AM 78.8 °F - 64.4 °F 61% 29.88 in 10.0 mi SSW 11.5 mph 17.3 mph N/A   Scattered Clouds
11:35 AM 80.6 °F 82.3 °F 64.4 °F 58% 29.88 in 10.0 mi SSW 9.2 mph - N/A   Clear
11:55 AM 82.4 °F 83.4 °F 62.6 °F 51% 29.88 in 10.0 mi SSW 8.1 mph - N/A   Clear
12:15 PM 86.0 °F 86.1 °F 60.8 °F 43% 29.87 in 10.0 mi WSW 6.9 mph - N/A   Clear
12:35 PM 87.8 °F 87.1 °F 59.0 °F 38% 29.87 in 10.0 mi SW 9.2 mph - N/A   Clear
12:55 PM 87.8 °F 86.5 °F 57.2 °F 35% 29.86 in 10.0 mi West 6.9 mph - N/A   Clear
1:35 PM 91.4 °F 89.4 °F 55.4 °F 29% 29.84 in 10.0 mi SSW 5.8 mph - N/A   Clear
2:15 PM 95.0 °F - 51.8 °F 23% 29.82 in 10.0 mi SW 6.9 mph - N/A   Clear
3:15 PM 98.6 °F - 30.2 °F 9% 29.80 in 10.0 mi West 5.8 mph - N/A   Clear
3:35 PM 98.6 °F - 30.2 °F 9% 29.79 in 10.0 mi SW 5.8 mph 10.4 mph N/A   Clear
4:35 PM 98.6 °F - 32.0 °F 10% 29.76 in 10.0 mi SSW 6.9 mph - N/A   Clear
4:55 PM 98.6 °F - 28.4 °F 8% 29.75 in 10.0 mi Calm Calm - N/A   Clear
5:35 PM 98.6 °F - 28.4 °F 8% 29.74 in 10.0 mi Calm Calm - N/A   Clear
6:15 PM 98.6 °F - 28.4 °F 8% 29.73 in 10.0 mi South 10.4 mph - N/A   Clear
6:55 PM 96.8 °F - 30.2 °F 10% 29.72 in 10.0 mi South 8.1 mph - N/A   Clear
7:15 PM 96.8 °F - 37.4 °F 13% 29.72 in 10.0 mi SSW 10.4 mph - N/A   Clear
7:35 PM 95.0 °F - 41.0 °F 15% 29.72 in 10.0 mi South 12.7 mph 16.1 mph N/A   Clear
7:55 PM 93.2 °F - 41.0 °F 16% 29.73 in 10.0 mi South 11.5 mph - N/A   Clear
8:15 PM 91.4 °F - 42.8 °F 18% 29.73 in 10.0 mi South 8.1 mph - N/A   Clear
8:35 PM 89.6 °F - 44.6 °F 21% 29.74 in 10.0 mi South 9.2 mph - N/A   Clear
8:55 PM 87.8 °F - 44.6 °F 22% 29.75 in 10.0 mi South 11.5 mph - N/A   Clear
9:15 PM 87.8 °F - 46.4 °F 24% 29.76 in 10.0 mi South 11.5 mph - N/A   Clear
9:35 PM 86.0 °F - 50.0 °F 29% 29.77 in 10.0 mi South 10.4 mph - N/A   Clear
9:55 PM 86.0 °F - 51.8 °F 31% 29.77 in 10.0 mi SSE 9.2 mph - N/A   Clear
10:35 PM 84.2 °F 82.8 °F 53.6 °F 35% 29.78 in 10.0 mi South 8.1 mph - N/A   Clear
10:55 PM 82.4 °F 81.4 °F 53.6 °F 37% 29.79 in 10.0 mi South 5.8 mph - N/A   Clear
11:15 PM 80.6 °F 80.5 °F 55.4 °F 42% 29.80 in 10.0 mi Calm Calm - N/A   Clear
11:35 PM 80.6 °F 80.5 °F 55.4 °F 42% 29.80 in 10.0 mi SSW 3.5 mph - N/A   Clear
11:55 PM 80.6 °F 81.1 °F 59.0 °F 48% 29.80 in 10.0 mi SSW 4.6 mph - N/A   Clear